Wind_Speed
24 23 25 28 25 23 20 20 21 24 25 25 24 23 22 21 20 18 15 14 14 11 12 12 12 10 11 11 12 11 11 12 14 14 14 14 15 14 15 16 16 14 14
29 27 27 28 25 24 23 23 24 25 25 25 24 23 22 20 18 16 15 14 13 12 12 13 13 13 12 14 13 15 15 14 14 15 15 15 15 14 15 14 14 15 15
31 30 28 28 28 27 26 25 25 25 25 24 24 22 21 20 19 17 16 15 13 12 13 14 12 10 11 13 14 13 15 15 14 14 15 15 14 15 15 15 14 13 14
31 32 31 30 29 28 27 26 25 24 24 23 22 22 21 19 18 17 16 15 14 13 14 15 12 10 11 12 12 13 14 12 12 13 14 15 14 14 15 15 15 14 13
31 31 31 29 28 27 27 26 24 23 22 21 19 19 18 18 17 16 15 14 13 13 14 14 14 11 13 12 9 9 10 10 11 13 12 11 12 13 14 14 14 14 13
32 31 30 29 27 26 25 24 23 21 20 18 17 16 16 16 15 14 13 12 11 12 12 12 12 10 10 11 10 9 7 9 9 9 11 12 12 14 14 14 14 14 13
33 31 30 28 26 25 23 21 20 19 18 16 15 14 14 13 12 11 10 9 8 9 9 9 10 9 8 7 9 10 7 9 10 8 10 10 10 13 13 14 14 14 14
32 31 30 28 26 25 23 20 17 15 15 14 13 12 12 11 10 9 8 7 6 7 6 6 7 7 8 8 8 11 9 9 11 8 8 13 12 10 13 13 13 13 13
30 29 28 28 26 25 21 18 17 14 13 12 11 10 9 8 6 5 5 5 5 4 4 4 3 5 7 8 9 9 13 11 9 10 11 11 12 12 12 13 14 13 13
29 28 27 26 26 24 21 19 17 15 14 12 11 9 9 8 4 4 4 6 6 5 3 2 3 4 7 9 12 10 12 13 13 13 12 13 12 12 13 13 12 13 12
28 27 26 26 25 23 20 18 16 14 12 11 9 9 9 8 4 6 8 8 7 5 5 5 6 5 6 8 10 12 11 13 14 16 14 15 12 9 11 11 11 12 11
32 30 27 26 24 23 21 18 16 15 13 12 11 7 9 9 8 7 9 13 11 9 8 8 8 7 7 7 8 12 12 13 17 16 16 17 17 13 11 8 8 11 13
30 30 30 27 24 23 21 18 15 14 12 12 12 9 10 9 10 10 11 14 13 11 8 7 7 5 4 5 6 9 8 12 17 18 17 20 18 17 15 12 11 11 13
29 29 29 28 25 23 20 17 13 12 11 11 10 11 11 10 10 9 8 13 13 11 9 6 6 5 4 4 5 7 11 13 14 16 19 20 18 18 20 15 15 14 14
29 28 29 28 26 23 20 16 14 12 10 8 11 9 8 7 6 8 8 13 12 9 7 5 7 6 6 5 8 7 9 9 11 12 18 20 18 19 18 18 18 16 16
28 27 29 28 25 22 20 17 13 11 8 9 10 9 8 7 7 6 8 12 11 9 9 6 7 5 7 7 5 8 9 15 12 13 15 22 20 19 17 19 18 18 17
28 24 24 24 23 23 20 17 15 11 10 10 8 9 8 6 6 6 8 10 10 10 8 7 8 7 7 4 4 5 3 3 6 11 14 18 21 22 16 20 19 18 20
30 25 21 21 22 22 20 18 13 11 11 11 11 12 10 4 6 7 8 9 12 10 8 9 6 5 4 2 5 6 3 4 7 8 12 16 17 19 23 18 21 20 21
31 29 22 23 24 22 20 17 14 13 14 13 14 15 11 6 7 7 8 9 10 11 6 7 4 5 5 1 3 2 3 6 11 10 6 9 14 16 17 21 21 20 22
22 27 17 22 27 24 21 19 16 17 17 16 16 15 13 10 8 9 8 10 10 13 8 7 4 4 3 2 3 3 4 5 8 7 7 7 13 14 15 18 20 20 21
22 25 20 22 24 23 23 23 22 22 19 17 16 14 14 11 9 9 10 10 12 15 12 10 6 3 3 4 4 5 3 7 6 8 9 10 9 7 15 18 19 19 19
23 24 18 19 22 23 22 23 22 18 17 16 15 14 11 10 9 11 10 11 11 14 13 13 8 4 2 2 4 4 4 7 8 10 10 12 12 11 14 15 18 18 17
22 20 18 20 24 21 21 20 21 19 17 17 14 8 7 9 9 10 10 12 12 13 15 13 10 7 6 4 4 3 2 4 8 11 11 12 16 15 14 14 13 15 16
19 20 18 18 24 24 23 23 21 18 16 13 12 9 8 9 8 6 10 13 13 13 14 15 14 10 8 6 3 5 5 6 5 7 11 13 13 16 17 16 16 15 15
18 18 17 20 19 19 20 21 18 18 14 12 11 9 9 8 9 9 10 11 15 14 15 15 16 14 11 9 8 7 6 6 9 9 6 9 13 14 14 17 20 20 18
16 19 20 19 18 18 16 16 17 16 12 12 10 10 9 9 9 9 10 11 10 12 15 15 15 17 15 12 9 7 5 4 5 6 9 8 11 13 16 16 17 18 19
Wind_Direction
161 154 153 155 155 151 149 143 141 143 143 142 142 141 138 136 133 129 130 129 124 115 117 124 128 131 124 119 124 125 121 122 124 128 135 138 131 130 137 138 135 131 131
156 157 154 154 154 152 149 144 140 138 139 139 138 137 136 136 133 134 133 129 126 117 117 114 111 110 114 118 118 123 121 120 124 126 129 129 136 135 139 133 130 129 132
158 156 157 156 154 154 150 146 141 139 137 136 136 138 139 139 137 136 132 130 127 122 118 110 110 113 120 123 127 127 128 131 135 136 135 134 135 139 138 134 131 130 133
161 158 159 158 157 154 150 147 145 143 141 142 141 142 142 139 137 135 130 129 129 127 117 111 119 118 117 114 125 127 129 129 136 136 141 138 135 139 144 141 137 138 136
163 161 161 159 157 152 149 148 147 147 145 144 144 144 141 139 136 135 131 131 133 129 129 131 144 145 129 129 143 144 137 135 139 140 143 142 139 145 146 146 145 144 140
163 163 164 161 160 155 152 151 150 149 147 147 146 143 141 140 139 136 136 137 135 131 140 149 159 161 145 152 169 165 175 170 152 134 150 153 158 152 152 150 148 149 144
164 166 167 167 165 160 159 158 159 158 157 154 151 148 148 146 144 140 141 139 136 140 152 161 166 173 174 169 176 183 176 159 148 142 147 154 157 152 149 153 155 152 150
167 168 170 172 172 169 167 166 167 168 166 162 160 159 156 152 150 147 147 148 150 145 155 166 183 197 187 181 177 185 178 182 164 169 159 153 157 164 153 156 156 155 156
172 171 173 177 179 178 179 182 182 179 172 172 170 170 163 158 154 162 164 169 165 157 158 170 205 220 203 195 194 195 199 192 180 187 168 165 153 173 159 155 155 158 158
177 177 177 179 184 188 191 190 186 188 182 182 181 185 182 175 214 212 206 204 196 189 208 195 228 235 209 197 200 205 203 201 198 189 177 163 158 157 148 153 153 157 160
181 184 184 184 186 188 188 185 186 186 194 198 194 197 226 236 244 257 236 226 226 240 266 260 246 245 228 205 198 205 210 206 199 196 193 191 181 162 143 144 155 160 159
181 184 188 190 189 189 188 188 192 200 202 207 207 216 235 243 260 271 253 234 239 258 267 269 237 234 223 200 204 205 205 200 203 203 208 209 209 198 187 167 161 159 163
184 188 190 191 193 195 196 199 202 207 210 217 222 233 247 264 266 268 268 231 233 259 261 265 234 221 229 205 214 218 202 206 207 210 216 206 206 207 202 222 196 180 173
192 197 195 195 197 202 202 206 214 216 217 224 235 246 257 267 263 265 243 215 224 247 256 242 232 236 229 232 232 238 234 236 212 216 210 213 207 208 211 216 202 193 186
202 203 201 201 201 205 206 211 220 222 223 231 241 252 242 263 282 261 229 213 224 243 240 225 224 249 259 249 242 252 248 241 234 222 212 215 208 209 216 212 201 200 193
204 207 206 206 207 212 215 216 217 220 237 239 240 244 247 263 272 258 222 215 226 233 239 234 251 289 297 269 275 265 262 245 237 221 215 218 218 212 215 208 200 202 202
205 203 203 211 215 218 225 221 219 233 245 248 252 240 241 242 255 245 230 219 216 228 227 245 257 294 290 281 288 271 271 244 226 227 225 220 218 213 216 209 205 212 213
204 201 199 205 215 212 213 210 221 234 252 260 259 250 250 248 259 248 229 228 221 220 231 243 275 288 339 292 275 269 225 237 212 217 224 212 213 216 219 214 220 218 218
202 203 197 207 211 214 223 223 233 243 254 262 259 255 265 250 264 249 225 215 214 210 220 232 271 292 321 292 308 282 203 177 193 197 196 211 213 217 219 220 220 221 220
215 205 192 219 210 213 225 234 241 247 249 253 253 258 261 252 262 251 240 220 217 212 216 226 265 271 332 313 289 267 174 179 197 201 231 213 208 218 214 219 219 220 222
207 211 218 213 206 214 220 229 240 249 251 258 258 263 256 259 252 230 252 226 219 212 226 224 254 267 295 301 202 187 186 183 194 183 189 206 210 217 215 218 217 217 220
207 203 213 207 220 215 222 234 245 254 254 258 261 265 267 257 241 231 251 224 213 215 219 225 232 234 244 240 197 185 189 212 216 209 199 211 206 205 204 210 217 218 218
197 200 206 212 210 215 224 234 237 245 251 253 256 254 250 241 253 248 242 225 215 219 222 222 223 220 229 237 242 174 184 227 225 227 224 228 215 213 204 206 219 222 223
205 206 205 219 218 225 231 230 239 248 257 268 270 257 248 234 245 248 227 224 230 225 220 221 223 220 236 249 257 212 246 248 222 226 229 218 218 209 211 215 211 215 226
204 197 205 208 209 212 214 224 240 248 252 256 261 275 276 270 262 246 237 234 231 232 223 221 221 223 232 244 235 236 262 257 234 241 248 231 208 206 216 232 235 231 232
206 209 205 209 212 211 216 226 236 243 252 256 269 283 283 274 268 261 248 244 240 232 228 225 225 227 233 243 249 260 273 307 280 255 229 228 228 240 240 244 241 237 234
Height
1525 1529 1531 1533 1536 1538 1541 1543 1545 1547 1548 1549 1551 1553 1554 1556 1558 1559 1560 1562 1562 1563 1564 1565 1565 1565 1565 1566 1566 1567 1569 1569 1570 1570 1570 1572 1572 1573 1573 1574 1575 1576 1577
1524 1529 1532 1535 1538 1540 1542 1545 1547 1549 1551 1552 1553 1555 1557 1558 1560 1561 1562 1563 1564 1565 1566 1566 1567 1568 1568 1568 1568 1568 1569 1571 1571 1572 1572 1573 1574 1575 1576 1577 1578 1579 1580
1526 1530 1534 1537 1539 1542 1545 1547 1550 1552 1554 1555 1556 1557 1559 1560 1562 1563 1564 1565 1566 1567 1568 1569 1570 1570 1569 1569 1570 1570 1571 1572 1573 1574 1574 1575 1576 1576 1577 1579 1580 1582 1583
1527 1531 1535 1539 1541 1545 1547 1550 1553 1555 1557 1559 1560 1560 1562 1563 1564 1565 1566 1567 1568 1569 1570 1571 1571 1571 1571 1572 1572 1572 1573 1574 1575 1576 1577 1577 1577 1579 1580 1580 1581 1583 1585
1529 1533 1537 1541 1544 1547 1549 1552 1554 1557 1559 1561 1562 1563 1563 1564 1566 1566 1567 1569 1570 1571 1572 1572 1573 1574 1573 1574 1575 1576 1576 1576 1578 1578 1579 1580 1580 1581 1582 1582 1583 1585 1586
1530 1535 1540 1543 1545 1548 1552 1554 1555 1558 1560 1562 1563 1565 1566 1566 1567 1568 1568 1569 1571 1572 1573 1573 1573 1575 1575 1576 1576 1577 1576 1577 1579 1581 1581 1582 1584 1583 1584 1584 1585 1587 1588
1531 1536 1540 1544 1547 1550 1553 1556 1558 1559 1560 1563 1564 1566 1567 1568 1568 1569 1569 1570 1571 1573 1573 1574 1575 1576 1576 1576 1577 1577 1577 1579 1581 1582 1584 1584 1585 1585 1585 1586 1587 1589 1590
1532 1536 1540 1544 1547 1550 1552 1555 1559 1561 1562 1564 1565 1566 1567 1569 1569 1570 1571 1572 1572 1573 1573 1574 1575 1576 1576 1577 1576 1577 1578 1579 1581 1582 1583 1585 1584 1586 1587 1587 1589 1590 1592
1534 1538 1542 1545 1548 1552 1554 1557 1558 1561 1564 1565 1566 1567 1568 1569 1570 1571 1572 1573 1572 1572 1573 1574 1575 1575 1575 1576 1575 1576 1578 1579 1581 1583 1583 1583 1583 1586 1587 1588 1590 1591 1593
1537 1540 1542 1545 1549 1552 1554 1556 1559 1560 1562 1564 1566 1567 1568 1569 1569 1571 1572 1573 1572 1573 1573 1574 1574 1574 1574 1574 1574 1576 1578 1579 1580 1582 1583 1585 1585 1586 1587 1588 1590 1592 1593
1539 1541 1543 1545 1548 1551 1554 1557 1559 1561 1563 1564 1566 1567 1567 1568 1570 1571 1572 1572 1572 1572 1572 1572 1572 1573 1572 1573 1573 1575 1576 1576 1579 1581 1583 1586 1587 1588 1587 1590 1591 1593 1594
1536 1540 1543 1546 1548 1551 1554 1556 1559 1560 1562 1564 1565 1566 1567 1568 1569 1569 1570 1570 1571 1571 1570 1571 1570 1571 1571 1572 1573 1572 1573 1575 1577 1579 1582 1584 1586 1588 1589 1590 1592 1593 1594
1535 1539 1541 1545 1549 1551 1553 1556 1558 1559 1561 1563 1565 1566 1567 1567 1567 1567 1567 1567 1568 1569 1569 1569 1569 1570 1571 1572 1572 1572 1573 1574 1575 1577 1580 1582 1585 1586 1588 1589 1592 1593 1594
1535 1538 1541 1544 1547 1550 1553 1556 1557 1558 1560 1562 1564 1565 1566 1566 1566 1566 1565 1565 1566 1567 1568 1568 1568 1569 1570 1570 1571 1571 1571 1571 1572 1574 1578 1580 1581 1584 1585 1587 1590 1593 1595
1535 1538 1541 1543 1545 1549 1553 1555 1556 1557 1559 1561 1562 1563 1564 1565 1564 1564 1563 1564 1564 1566 1567 1567 1567 1567 1568 1568 1568 1568 1569 1570 1570 1572 1575 1577 1578 1582 1584 1586 1589 1591 1594
1533 1536 1540 1542 1545 1548 1551 1553 1555 1557 1558 1559 1560 1561 1562 1563 1563 1562 1562 1563 1564 1565 1565 1566 1566 1565 1565 1566 1566 1567 1568 1568 1568 1570 1572 1574 1576 1579 1582 1585 1587 1589 1591
1530 1534 1537 1542 1544 1547 1550 1553 1554 1556 1556 1557 1559 1560 1560 1561 1561 1561 1561 1562 1563 1564 1565 1565 1565 1564 1564 1564 1565 1565 1564 1564 1566 1567 1568 1570 1573 1576 1579 1583 1584 1587 1590
1527 1531 1535 1539 1543 1545 1549 1551 1552 1554 1555 1556 1557 1558 1558 1558 1559 1559 1560 1561 1562 1563 1564 1565 1564 1563 1563 1562 1562 1562 1562 1563 1563 1564 1565 1566 1569 1572 1575 1578 1582 1584 1587
1525 1528 1530 1536 1540 1547 1549 1551 1551 1552 1553 1554 1555 1555 1558 1557 1558 1559 1559 1560 1561 1562 1563 1564 1564 1563 1561 1561 1560 1561 1561 1562 1562 1563 1564 1564 1566 1569 1572 1576 1578 1581 1583
1524 1528 1532 1536 1540 1544 1547 1550 1549 1549 1550 1552 1553 1554 1555 1556 1557 1558 1558 1558 1559 1561 1563 1563 1562 1562 1561 1561 1560 1560 1560 1561 1562 1562 1563 1564 1566 1568 1571 1573 1576 1578 1581
1524 1527 1531 1535 1539 1541 1543 1545 1546 1546 1549 1550 1551 1552 1554 1553 1554 1555 1556 1557 1557 1559 1561 1562 1561 1560 1560 1559 1559 1559 1559 1560 1561 1562 1562 1564 1566 1568 1569 1571 1573 1575 1578
1521 1525 1528 1532 1536 1538 1541 1543 1545 1546 1547 1547 1549 1550 1551 1551 1552 1553 1554 1555 1556 1558 1560 1560 1560 1559 1559 1559 1559 1558 1559 1561 1560 1560 1561 1563 1565 1567 1568 1569 1571 1572 1574
1521 1524 1527 1530 1534 1536 1540 1543 1544 1545 1545 1545 1546 1547 1549 1548 1550 1550 1552 1553 1555 1556 1557 1558 1558 1558 1558 1559 1558 1558 1559 1559 1559 1559 1560 1562 1564 1565 1566 1567 1569 1570 1572
1520 1523 1526 1528 1531 1535 1538 1541 1542 1542 1544 1544 1544 1544 1546 1547 1548 1548 1549 1551 1553 1553 1554 1555 1557 1557 1557 1557 1558 1558 1558 1559 1558 1558 1558 1560 1561 1562 1564 1566 1567 1568 1569
1520 1522 1525 1528 1530 1534 1536 1538 1539 1541 1543 1543 1543 1543 1544 1544 1545 1546 1547 1548 1550 1550 1551 1552 1554 1555 1556 1556 1557 1557 1558 1558 1558 1557 1557 1557 1559 1560 1561 1563 1565 1566 1567
1518 1520 1524 1527 1530 1532 1533 1536 1538 1539 1541 1541 1542 1543 1543 1542 1542 1542 1543 1545 1546 1547 1548 1550 1552 1553 1554 1554 1555 1556 1556 1557 1557 1556 1557 1556 1557 1558 1560 1561 1562 1563 1564